TimePDT,TemperatureF,Dew PointF,Humidity,Sea Level PressureIn,VisibilityMPH,Wind Direction,Wind SpeedMPH,Gust SpeedMPH,PrecipitationIn,Events,Conditions,WindDirDegrees,DateUTC
12:55 AM,64.0,55.9,75,29.92,10.0,SW,3.5,-,N/A,,Overcast,230,2013-06-09 07:55:00
1:33 AM,64.4,55.4,73,29.90,10.0,Calm,Calm,-,N/A,,Overcast,0,2013-06-09 08:33:00
1:55 AM,64.0,57.0,78,29.92,9.0,Calm,Calm,-,N/A,,Overcast,0,2013-06-09 08:55:00
2:55 AM,63.0,57.0,81,29.91,5.0,Calm,Calm,-,N/A,,Haze,0,2013-06-09 09:55:00
3:20 AM,62.6,57.2,82,29.89,4.0,WSW,3.5,-,N/A,,Haze,250,2013-06-09 10:20:00
3:55 AM,63.0,57.9,84,29.91,5.0,SW,3.5,-,N/A,,Haze,230,2013-06-09 10:55:00
4:02 AM,62.6,57.2,82,29.88,5.0,Calm,Calm,-,N/A,,Haze,0,2013-06-09 11:02:00
4:55 AM,63.0,57.9,84,29.91,4.0,Calm,Calm,-,N/A,,Haze,0,2013-06-09 11:55:00
5:16 AM,62.6,57.2,82,29.88,4.0,Calm,Calm,-,N/A,,Haze,0,2013-06-09 12:16:00
5:34 AM,62.6,57.2,82,29.88,6.0,Calm,Calm,-,N/A,,Overcast,0,2013-06-09 12:34:00
5:46 AM,62.6,57.2,82,29.89,6.0,Calm,Calm,-,N/A,,Haze,0,2013-06-09 12:46:00
5:55 AM,63.0,57.9,84,29.91,6.0,Calm,Calm,-,N/A,,Haze,0,2013-06-09 12:55:00
6:50 AM,62.6,57.2,82,29.90,7.0,Calm,Calm,-,N/A,,Overcast,0,2013-06-09 13:50:00
6:55 AM,63.0,57.9,84,29.92,7.0,Calm,Calm,-,N/A,,Overcast,0,2013-06-09 13:55:00
7:55 AM,64.0,57.9,80,29.93,8.0,Calm,Calm,-,N/A,,Overcast,0,2013-06-09 14:55:00
8:55 AM,66.0,57.9,75,29.94,10.0,South,3.5,-,N/A,,Overcast,190,2013-06-09 15:55:00
9:03 AM,66.2,57.2,73,29.91,10.0,SSW,3.5,-,N/A,,Overcast,210,2013-06-09 16:03:00
9:55 AM,68.0,57.9,70,29.94,10.0,Variable,5.8,-,N/A,,Overcast,0,2013-06-09 16:55:00
10:55 AM,70.0,57.9,65,29.94,10.0,South,9.2,-,N/A,,Mostly Cloudy,190,2013-06-09 17:55:00
11:55 AM,70.0,57.9,65,29.94,10.0,SSW,10.4,-,N/A,,Mostly Cloudy,210,2013-06-09 18:55:00
12:55 PM,69.1,57.9,68,29.94,10.0,SW,11.5,-,N/A,,Overcast,220,2013-06-09 19:55:00
1:55 PM,68.0,57.0,68,29.94,10.0,SW,8.1,-,N/A,,Overcast,220,2013-06-09 20:55:00
2:55 PM,66.9,57.0,70,29.94,10.0,SW,12.7,-,N/A,,Overcast,230,2013-06-09 21:55:00
3:55 PM,66.9,55.9,68,29.94,10.0,SW,10.4,-,N/A,,Overcast,220,2013-06-09 22:55:00
4:55 PM,66.9,55.0,66,29.92,10.0,SSW,6.9,-,N/A,,Overcast,210,2013-06-09 23:55:00
5:55 PM,66.9,55.0,66,29.91,10.0,SW,8.1,-,N/A,,Overcast,230,2013-06-10 00:55:00
6:55 PM,66.0,55.0,68,29.91,10.0,SSW,3.5,-,N/A,,Overcast,200,2013-06-10 01:55:00
7:55 PM,64.9,55.0,70,29.90,10.0,SW,4.6,-,N/A,,Overcast,220,2013-06-10 02:55:00
8:55 PM,64.9,55.0,70,29.91,10.0,South,4.6,-,N/A,,Overcast,190,2013-06-10 03:55:00
9:55 PM,64.9,54.0,68,29.93,10.0,WSW,3.5,-,N/A,,Overcast,240,2013-06-10 04:55:00
10:55 PM,64.9,55.0,70,29.94,10.0,SW,3.5,-,N/A,,Overcast,220,2013-06-10 05:55:00
11:55 PM,64.9,54.0,68,29.93,10.0,SSW,3.5,-,N/A,,Overcast,210,2013-06-10 06:55:00